www.pogodaiklimat.ru

Погода и климат >> Архив погоды >> Россия >> Коми >> Петрунь


АРХИВ ПОГОДЫ в Петруни

Время (UTC), дата Ветер
(напр.,м/с)
 
Видим.   Явления Облачность Т
(С)
Тd
(С)
f
(%)
Тe
(С)
Тes
(С)
Комфортность P
(гПа)
Po
(гПа)
Тmin
(С)
Tmax
(С)
R
(мм)
R24
(мм)
S
(см)
12 18.06 З 5
{14}
7000 м слаб. ливневой дождь 10/10 360 м
[Cb cap]
+5.7 +1.0 72 +1 +1 1000.7 993.2
15 18.06 З 4
{12}
7000 м слаб. ливневой дождь 10/10 630 м
[Cb cap]
+4.5 +1.8 83 0 0 1002.0 994.4 +7.2 1
18 18.06 З 4
{10}
25 км в посл. час ливневой дождь 10/10 360 м
[Cb cap]
+3.1 +1.8 91 -2 -2 1002.3 994.7
21 18.06 З 5
{10}
28 км {ливн. осадки} 10/3 600 м
[Cb cap Ac und]
+2.8 +0.7 86 -3 -3 1002.2 994.6
00 19.06 З 5
{10}
30 км {ливн. осадки} 10/10 420 м
[St]
+2.6 +0.6 87 -3 -3 1002.8 995.2
03 19.06 З 4 35 км 10/10 420 м
[St]
+3.1 +0.7 84 -2 -2 1003.3 995.7 +2.5 1
06 19.06 З 4 30 км 10/10 630 м
[Cb cap]
+4.2 +1.3 81 -0 -0 1003.9 996.3
09 19.06 З 4
{10}
28 км в посл. час ливневой дождь 9/9 800 м
[Cb cap]
+5.6 +0.9 72 +2 +3 1004.7 997.1
12 19.06 З 4
{11}
35 км {ливн. осадки} 9/9 930 м
[Sc]
+7.0 -0.1 61 +4 +4 1006.0 998.4
15 19.06 СЗ 3 35 км 10/10 1140 м
[Sc]
+6.5 -0.9 59 +4 +4 1006.9 999.3 +7.6 0.3
18 19.06 СЗ 2 40 км 9/9 1470 м
[Sc]
+5.1 -0.6 67 +3 +3 1007.0 999.4
21 19.06 ЮЗ 1 35 км 10/10 1380 м
[Sc]
+4.0 +1.0 81 +3 +3 1006.6 999.0
00 20.06 ЮЗ 1 45 км 9/9 1320 м
[Sc]
+4.1 +1.3 82 +3 +3 1006.6 999.0
03 20.06 З 2 45 км 10/10 1200 м
[Sc]
+5.8 0.0 66 +4 +4 1006.0 998.4 +4.0
06 20.06 З 2 50 км 10/4 1000 м
[Sc Ac As]
+7.0 +0.2 62 +5 +7 1005.6 998.1
09 20.06 ЮЗ 1 50 км 9/8 1110 м
[Sc Ac As]
+9.1 -0.6 51 +9 +11 1005.3 997.8
12 20.06 З 1 50 км 10/6 1200 м
[Sc Ac und]
+10.2 -0.3 48 +10 +11 1005.5 998.0
15 20.06 СЗ 2 40 км 10/3 600 м
[Cb cap Ac As]
+8.9 +2.4 64 +7 +8 1006.0 998.5 +10.7
18 20.06 СЗ 2 27 км в посл. час ливневой дождь 10/10 1200 м
[Cb cap]
+6.3 +4.5 88 +4 +4 1007.0 999.4
21 20.06 СЗ 2 35 км {ливн. осадки} 9/9 1470 м
[Cb cap]
+4.2 +1.4 82 +1 +1 1008.1 1000.5
00 21.06 З 2 35 км {ливн. осадки} 8/3 1000 м
[Sc Ac As Ci fib]
+3.3 -0.1 78 0 +1 1009.0 1001.4
03 21.06 З 2 40 км 9/0
[Ac As]
+4.9 -0.3 69 +3 +4 1009.1 1001.5 +3.0 0.6
06 21.06 З 3 50 км 5/4 600 м
[Cu med, cong Ac trans]
+8.5 -0.1 55 +6 +11 1008.6 1001.1
09 21.06 З 3 50 км 9/4 600 м
[Cb cap Ac As]
+8.9 -0.6 51 +7 +9 1009.0 1001.5
12 21.06 З 6-11
{11}
55 км 9/4 600 м
[Cb cap Ac cuf Ci sp]
+9.0 +1.1 58 +6 +6 1010.2 1002.7
15 21.06 З 5
{12}
9000 м слаб. ливневой дождь 10/10 600 м
[Cb cap]
+5.7 +1.8 76 +1 +1 1011.8 1004.2 +10.1 0.0
18 21.06 ЮЗ 3 35 км {ливн. осадки} 9/9 1020 м
[]
+5.9 +1.6 74 +3 +3 1011.2 1003.6
21 21.06 ЮЗ 4 35 км 9/9 800 м
[Sc]
+6.2 +2.0 74 +3 +3 1010.9 1003.1
00 22.06 ЮЗ 4 40 км 8/0
[Ac As]
+7.1 +2.5 73 +4 +4 1010.7 1003.1
03 22.06 З 4 45 км 1/1 600 м
[Sc]
+8.6 +1.7 62 +6 +9 1010.3 1002.8 +5.4 0.0
06 22.06 З 4 50 км 3/0
[Ac trans]
+12.7 +0.6 43 +11 +17 1009.2 1001.8
09 22.06 З 3 45 км 6/1 600 м
[Cu hum Ci]
+16.5 +0.8 35 +16 +24 1008.2 1000.9
12 22.06 штиль 0 50 км ?/? +18.2 -0.1 29 +18 +18 1007.2 1000.0
15 22.06 СВ 5 55 км 3/1 600 м
[Cu hum Ci fib]
+14.3 +3.9 50 +13 +14 1007.4 1000.1 +18.7
18 22.06 СВ 2 45 км 1/0
[Ac As]
+8.9 +3.9 71 +7 +7 1007.7 1000.2
21 22.06 СВ 3 40 км 8/0
[Ac As Ci sp]
+5.6 +3.1 84 +2 +2 1006.9 999.3
00 23.06 СВ 2 40 км 4/0
[Ac lent Cc]
+6.5 +3.6 82 +4 +5 1006.6 999.0
03 23.06 СВ 2 50 км 10/10 1380 м
[Sc]
+10.9 +4.7 66 +10 +10 1005.3 997.9 +4.0
06 23.06 СВ 3 50 км 9/0
[Ac As]
+13.8 +3.6 50 +13 +16 1003.8 996.5
09 23.06 С 2 55 км 9/0
[Ac lent]
+17.0 +3.5 41 +17 +21 1002.0 994.7
12 23.06 С 4 9000 м слаб. дождь 10/0
[As op]
+13.6 +7.0 64 +12 +13 1000.7 993.4
15 23.06 СВ 2 35 км {дождь} 10/0
[Ac As]
+12.0 +7.8 75 +11 +12 1000.2 992.8 +17.4 0.3
18 23.06 С 2 29 км в посл. час дождь 10/10 600 м
[Sc]
+9.6 +8.3 92 +8 +8 999.9 992.5
21 23.06 С 2 26 км 10/10 420 м
[St]
+8.4 +7.5 94 +6 +6 999.6 992.2
00 24.06 С 4 7000 м слаб. ливневой дождь 9/9 210 м
[Cb cap]
+7.3 +6.7 96 +4 +4 1000.8 993.3
03 24.06 СЗ 4
{11}
28 км {ливн. осадки} 10/10 330 м
[St]
+4.6 +3.0 89 0 0 1004.6 997.0 +4.2 3
06 24.06 СЗ 4 27 км в посл. час ливневой дождь 10/4 600 м
[Cb cap Ac und]
+5.2 +2.7 84 +1 +2 1006.3 998.7
09 24.06 З 5-10
{10}
29 км в посл. час ливневой дождь 10/4 600 м
[Cb cap Ac und]
+6.7 +2.7 76 +3 +4 1008.3 1000.7
12 24.06 СЗ 4
{11}
35 км {ливн. осадки} 8/3 600 м
[Cb cap Ac cuf]
+7.8 +2.7 70 +5 +6 1010.4 1002.9
15 24.06 З 4
{11}
40 км {ливн. осадки} 8/3 600 м
[Cb cap Ac cuf]
+7.9 +0.6 60 +5 +5 1011.9 1004.4 +8.9 1
18 24.06 З 4
{10}
35 км {ливн. осадки} 10/3 600 м
[Cb cap Ac und]
+5.2 +2.2 81 +1 +1 1013.4 1005.8
21 24.06 З 3 30 км 10/10 240 м
[St]
+4.8 +3.4 91 +1 +1 1013.6 1006.0
00 25.06 З 3 30 км 10/10 600 м
[Cb cap]
+4.4 +1.8 83 +1 +1 1014.4 1006.8
03 25.06 З 4 7000 м слаб. ливневой дождь 10/10 300 м
[Cb cap]
+4.5 +3.2 91 0 0 1015.4 1007.7 +4.2 0.3
06 25.06 З 4 9000 м слаб. ливневой дождь 10/10 600 м
[Cb cap]
+5.0 +3.4 89 +1 +1 1016.4 1008.7
09 25.06 З 4
{10}
40 км {ливн. осадки} 9/9 870 м
[Sc]
+7.0 +2.2 71 +4 +4 1017.2 1009.6

 

Местоположение метеостанции Петрунь (Коми, Россия): широта 66.43 долгота 60.77 высота над уровнем моря 62 м.

В архиве по умолчанию представлена погода в Петруни за последнюю неделю. Архивные данные за месяц целиком и за предыдущие месяцы, начиная с января 2011 года, Вы можете получить, выбрав интересующий диапазон дат из раскрывающегося списка и нажав кнопку "Ввод!".


*Определитесь, кто Вы:
робот инопланетянин человек

Внимание! Время в таблицах - всемирное. Для получения местного времени необходимо прибавить поправку, которая равна 3 ч.

Смотрите также архив погоды в соседних городах и на ближайших метеорологических станциях:

Погода в Харуте (Ненецкий АО, Россия) (72 км)
Погода в Усинске (Коми, Россия) (159 км)
Погода в Елецкой (Коми, Россия) (160 км)
Погода в Хорей-Вере (Ненецкий АО, Россия) (163 км)
Погода в Усть-Усе (Коми, Россия) (180 км)
Погода в Воркуте (Коми, Россия) (182 км)
Погода в Мужах (Ямало-Ненецкий АО, Россия) (214 км)
Погода в Печоре (Коми, Россия) (222 км)
Погода в Харпе (Ямало-Ненецкий АО, Россия) (225 км)
Погода в Саранпауле (Ханты-Мансийский АО, Россия) (239 км)

Пояснения к столбцам:

Ветер - указаны скорость ветра в м/с - средняя за 10 мин, порывы в срок и между сроками (в фигурных скобках) и направление, откуда дует ветер: С - северный, СВ - северо-восточный, В - восточный, ЮВ - юго-восточный, Ю - южный, ЮЗ - юго-западный, З - западный, СЗ - северо-западный.
Видимость - горизонтальная дальность видимости в метрах или километрах. При видимости от 1 до 10 км при отсутствии осадков обычно наблюдается дымка, при ухудшении видимости до 1 км и менее - туман. В сухую погоду видимость может ухудшаться дымом, пылью или мглою.
Явления - указаны атмосферные явления, наблюдавшиеся в срок или в последний час перед сроком; фигурными скобками обозначены явления, наблюдавшиеся между сроками (за 1-3 часа до срока); квадратными скобками обозначены град или гололедные отложения с указанием их диаметра в мм.
Облачность - указаны через наклонную черту общая и нижняя облачность в баллах и высота нижней границы облаков в метрах; квадратными скобками обозначены формы облаков: Ci - перистые, Cs - перисто-слоистые, Cc - перисто-кучевые, Ac - высококучевые, As - высокослоистые, Sc - слоисто-кучевые, Ns - слоисто-дождевые, Cu - кучевые, Cb - кучево-дождевые. Подробнее классификацию облаков см. в Атласе облаков (PDF).
T - Температура воздуха - температура, измеренная на высоте 2 м над землей.
Td - Температура точки росы - температура, при понижении до которой содержащийся в воздухе водяной пар достигнет насыщения.
f - Относительная влажность воздуха - влажноcть воздуха, измеренная на высоте 2 м над землей.
Te - Эффективная температура - температура, которую ощущает одетый по сезону человек в тени. Характеристика душности погоды. При расчете учитывается влияние влажности воздуха и скорости ветра на теплоощущения человека.
Tes - Эффективная температура на солнце - температура, которую ощущает человек, с поправкой на солнечный нагрев. Характеристика знойности погоды. Зависит от высоты солнца над горизонтом, облачности и скорости ветра. Ночью, в пасмурную погоду, а также при ветре 12 м/с и более поправка равна нулю.
P - Атмосферное давление - приведенное к уровню моря атмосферное давление.
Po - Атмосферное давление - измеренное на уровне метеостанции атмосферное давление.
Tmin - Минимальная температура - минимум температуры воздуха на высоте 2 м над землей.
Tmax - Максимальная температура - максимум температуры воздуха на высоте 2 м над землей.
R - Количество осадков - Количество выпавших осадков за период времени, мм. При наведении курсора мыши на число - период времени, за который выпало указанное количество осадков.
R24 - Количество осадков - Количество выпавших осадков за 24 часа, мм.
S - Снежный покров - Высота снежного покрова, см. При наведении курсора мыши на число - состояние снежного покрова и степень покрытия местности в баллах.